QPF
0.00 0.00 0.00 0.00 0.00 0.00 0.00 0.00 0.00 0.00 0.00 0.00 0.00 0.00 0.00 0.00 0.00 0.00 0.00 0.00 0.00 0.00
0.00 0.00 0.00 0.00 0.00 0.00 0.00 0.00 0.00 0.00 0.00 0.00 0.00 0.00 0.00 0.00 0.00 0.00 0.00 0.00 0.00 0.00
0.00 0.00 0.00 0.00 0.00 0.00 0.00 0.00 0.00 0.00 0.00 0.00 0.00 0.00 0.00 0.00 0.00 0.00 0.00 0.00 0.00 0.00
0.00 0.00 0.00 0.00 0.00 0.00 0.00 0.00 0.00 0.00 0.00 0.00 0.00 0.00 0.00 0.00 0.00 0.00 0.00 0.00 0.00 0.00
0.00 0.00 0.00 0.00 0.00 0.00 0.00 0.00 0.00 0.00 0.00 0.00 0.00 0.00 0.00 0.00 0.00 0.00 0.00 0.00 0.00 0.00
0.00 0.00 0.00 0.00 0.00 0.00 0.00 0.00 0.00 0.00 0.00 0.00 0.00 0.00 0.00 0.00 0.00 0.00 0.00 0.00 0.00 0.00
0.00 0.00 0.00 0.00 0.00 0.00 0.00 0.00 0.00 0.00 0.00 0.00 0.00 0.00 0.00 0.00 0.00 0.00 0.00 0.00 0.00 0.00
0.00 0.00 0.00 0.00 0.00 0.00 0.00 0.00 0.00 0.00 0.00 0.00 0.00 0.00 0.00 0.00 0.00 0.00 0.00 0.00 0.00 0.00
0.00 0.00 0.00 0.00 0.00 0.00 0.00 0.00 0.00 0.00 0.00 0.00 0.00 0.00 0.00 0.00 0.00 0.00 0.00 0.00 0.00 0.00
0.00 0.00 0.00 0.00 0.00 0.00 0.00 0.00 0.00 0.00 0.00 0.00 0.00 0.00 0.00 0.00 0.00 0.00 0.00 0.00 0.00 0.00
0.00 0.00 0.00 0.00 0.00 0.00 0.00 0.00 0.00 0.00 0.00 0.00 0.00 0.00 0.00 0.00 0.00 0.00 0.00 0.00 0.00 0.00
0.00 0.00 0.00 0.00 0.00 0.00 0.00 0.00 0.00 0.00 0.00 0.00 0.00 0.00 0.00 0.00 0.00 0.00 0.00 0.00 0.00 0.00
0.00 0.00 0.00 0.00 0.00 0.00 0.00 0.00 0.00 0.00 0.00 0.00 0.00 0.00 0.00 0.00 0.00 0.00 0.00 0.00 0.00 0.00
0.00 0.00 0.00 0.00 0.00 0.00 0.00 0.00 0.00 0.00 0.00 0.00 0.00 0.00 0.00 0.00 0.00 0.00 0.00 0.00 0.00 0.00
MSLP
1016.88 1017.31 1017.79 1018.07 1018.50 1019.00 1019.60 1020.02 1020.16 1020.67 1021.04 1021.66 1022.23 1022.83 1023.24 1023.92 1024.29 1024.93 1025.69 1025.90 1026.51 1026.95
1016.17 1016.61 1016.83 1017.25 1017.71 1018.18 1018.68 1019.29 1019.81 1020.18 1020.71 1021.14 1021.75 1022.28 1023.00 1023.88 1024.31 1024.70 1025.56 1026.01 1026.63 1026.96
1015.23 1015.63 1016.17 1016.80 1017.12 1017.38 1017.87 1018.70 1019.45 1020.12 1020.59 1020.99 1021.41 1022.06 1022.78 1023.70 1024.49 1024.70 1025.46 1026.09 1026.53 1027.06
1014.76 1015.21 1015.76 1016.28 1016.67 1017.06 1017.64 1018.40 1019.27 1019.85 1020.54 1021.03 1021.46 1021.93 1022.52 1023.49 1024.01 1024.51 1025.24 1025.77 1026.28 1027.09
1014.30 1014.70 1015.04 1015.25 1015.99 1016.88 1017.56 1018.17 1018.97 1019.73 1020.40 1020.81 1021.20 1021.41 1022.44 1022.96 1023.35 1024.33 1024.81 1025.37 1026.04 1026.71
1013.98 1014.27 1014.88 1015.26 1015.74 1016.41 1017.07 1017.78 1018.66 1019.47 1019.98 1020.71 1020.57 1021.92 1021.87 1022.37 1023.04 1023.81 1024.31 1024.75 1025.35 1026.10
1014.55 1014.47 1014.82 1015.36 1016.12 1016.84 1017.35 1017.86 1018.28 1018.94 1019.61 1019.99 1020.74 1020.83 1021.95 1022.45 1022.97 1023.80 1024.24 1024.84 1025.13 1025.65
1015.02 1015.21 1015.44 1015.85 1016.07 1016.39 1017.15 1017.86 1018.58 1019.19 1019.65 1020.19 1020.40 1021.31 1021.02 1022.42 1022.57 1023.41 1023.95 1024.73 1025.01 1025.38
1015.21 1015.77 1016.37 1016.54 1016.87 1017.08 1017.26 1017.50 1018.17 1018.76 1019.17 1019.83 1020.21 1020.27 1021.49 1021.85 1022.65 1023.45 1024.04 1024.61 1025.14 1025.34
1015.98 1016.27 1016.51 1016.93 1017.36 1017.54 1017.97 1017.85 1017.99 1018.53 1019.09 1019.59 1020.07 1020.74 1021.50 1021.78 1022.79 1023.07 1023.92 1024.11 1024.89 1025.19
1016.47 1016.76 1016.95 1017.16 1017.39 1017.47 1017.62 1017.78 1018.02 1018.32 1018.46 1018.95 1019.95 1020.55 1020.81 1021.70 1022.07 1022.72 1023.68 1023.50 1024.48 1024.92
1016.49 1016.82 1017.07 1017.14 1017.55 1017.86 1018.30 1018.34 1018.08 1018.43 1018.68 1018.71 1019.15 1020.05 1020.83 1021.49 1022.13 1022.49 1023.36 1023.88 1024.59 1024.82
1016.36 1016.72 1017.01 1017.00 1017.33 1017.77 1017.90 1018.20 1018.43 1018.60 1019.06 1019.42 1019.78 1020.45 1021.13 1021.61 1022.01 1022.57 1023.13 1023.82 1024.50 1024.57
1016.74 1017.12 1017.18 1017.24 1017.45 1017.82 1018.08 1018.27 1018.35 1018.24 1018.79 1019.19 1019.71 1020.46 1020.87 1021.27 1021.42 1022.02 1022.69 1023.15 1023.68 1024.11
Thickness
5679 5677 5674 5671 5667 5665 5658 5653 5652 5646 5641 5635 5629 5623 5616 5609 5604 5596 5587 5582 5574 5566
5675 5671 5670 5668 5663 5661 5657 5649 5644 5640 5635 5630 5624 5618 5609 5599 5594 5589 5578 5571 5563 5556
5673 5670 5664 5658 5656 5655 5652 5644 5634 5628 5624 5619 5615 5608 5601 5590 5582 5577 5568 5560 5553 5544
5665 5661 5655 5651 5648 5644 5639 5633 5622 5617 5612 5607 5602 5597 5590 5581 5574 5568 5559 5551 5543 5531
5658 5653 5649 5648 5641 5633 5627 5621 5613 5605 5600 5597 5592 5588 5578 5573 5568 5557 5549 5541 5533 5523
5651 5649 5642 5636 5630 5623 5618 5613 5604 5597 5591 5583 5584 5571 5569 5564 5556 5548 5540 5533 5525 5515
5636 5637 5632 5624 5615 5608 5602 5598 5594 5588 5582 5578 5569 5566 5554 5548 5541 5533 5527 5520 5514 5506
5618 5616 5612 5607 5603 5599 5592 5585 5578 5572 5567 5561 5558 5548 5548 5534 5531 5523 5516 5506 5501 5494
5603 5598 5592 5588 5583 5580 5577 5575 5568 5561 5557 5550 5546 5543 5529 5524 5515 5508 5500 5493 5485 5483
5583 5581 5577 5571 5566 5564 5558 5557 5554 5549 5542 5536 5532 5525 5517 5512 5502 5496 5488 5484 5475 5470
5565 5563 5560 5556 5553 5551 5548 5545 5540 5535 5533 5527 5517 5510 5508 5499 5494 5489 5478 5478 5467 5461
5552 5547 5544 5544 5539 5536 5530 5527 5527 5523 5518 5515 5509 5501 5493 5486 5479 5476 5467 5461 5453 5447
5538 5534 5530 5530 5527 5521 5518 5514 5510 5507 5501 5495 5491 5485 5478 5473 5468 5462 5455 5446 5438 5436
5524 5519 5517 5516 5512 5507 5503 5500 5498 5497 5490 5486 5478 5471 5467 5461 5457 5451 5442 5437 5431 5425